Location: Unspecified
(51.6250°N, 0.8230°E)
Time: 12:12:30
(UTC+00:00)

ISS - Pass Details

Date: 27 January 2021
Orbit: 417 x 422 km, 51.6° (Epoch: 06 March)

Event Time Altitude Azimuth Distance (km) Brightness Sun altitude
Rises 18:33:30 0° 270° (W) 2,374 1.8 -17.9°
Reaches altitude 10° 18:35:36 10° 271° (W) 1,510 0.3 -18.2°
Maximum altitude 18:39:00 87° 359° (N) 429 -3.8 -18.7°
Enters shadow 18:39:22 69° 83° (E) 456 -3.9 -18.8°
